[[{"header":{"parameterUnit":"m.s-1","parameterCategory":2,"la1":30.2991,"la2":30.254,"lo1":-89.0895,"lo2":-89.0444,"dy":0.0017,"dx":0.0017,"nx":28,"ny":28,"refTime":"2024-05-01T03:00:00:Z","depth":"0","parameterNumber":2,"parameterNumberName":"U-component_of_CURRENTS"},"data":[0,0,0,0,0,0,0,0,0,0,0,0,0,0,0,0,0,0,0,0,0,0,0,0,0,0,0,0,0,0,0,0,0,0,0,0,0,0,0,0,0,0,0,0,0,0,0,0,0,0,0,0,0,0,0,0,0,0,-0.255,-0.255,0,-0.2553,-0.2553,-0.2552,-0.2525,-0.2525,-0.2524,-0.2524,-0.2483,-0.2482,-0.2481,0,0,0,0,0,0,0,0,0,0,0,0,0,-0.2557,-0.2556,-0.255,-0.255,-0.2551,-0.2553,-0.2553,-0.2552,-0.2525,-0.2525,-0.2524,-0.2524,-0.2483,-0.2482,-0.2481,0,0,0,0,0,0,0,0,0,0,0,0,0,-0.2551,-0.2556,-0.255,-0.2541,-0.2541,-0.2553,-0.2553,-0.2552,-0.2525,-0.2525,-0.2524,-0.2524,-0.2483,-0.2482,-0.2481,-0.2481,0,0,-0.2477,-0.2476,0,0,0,0,0,0,0,0,-0.2552,-0.255,-0.2542,-0.2542,-0.2542,-0.2543,-0.254,-0.2528,-0.2525,-0.2526,-0.2524,-0.2524,-0.2502,-0.25,-0.2494,-0.2479,-0.2478,-0.2477,-0.2476,-0.2476,-0.2475,0,0,0,0,0,0,0,-0.2552,-0.255,-0.2546,-0.2543,-0.2543,-0.2551,-0.2548,-0.2538,-0.2511,-0.2526,-0.2525,-0.2534,-0.2501,-0.2496,-0.2493,-0.2477,-0.2477,-0.2476,-0.2475,-0.2474,-0.2432,-0.2432,0,0,0,0,0,0,-0.256,-0.255,-0.2546,-0.2546,-0.2552,-0.2551,-0.2548,-0.2539,-0.2512,-0.251,-0.2534,-0.2533,-0.2498,-0.2495,-0.2491,-0.2441,-0.2476,-0.2474,-0.2474,-0.2432,-0.2432,-0.2431,0,0,0,0,0,0,-0.256,-0.2559,-0.2546,-0.2554,-0.2553,-0.2552,-0.2541,-0.2539,-0.2529,-0.252,-0.2516,-0.2527,-0.2497,-0.2493,-0.2465,-0.2441,-0.2474,-0.2473,-0.2433,-0.2432,-0.2432,-0.2372,0,0,0,0,0,0,-0.256,-0.2558,-0.2545,-0.2554,-0.2553,-0.2535,-0.2542,-0.254,-0.2538,-0.2536,-0.2513,-0.2509,-0.2497,-0.2467,-0.2464,-0.244,-0.2472,-0.2433,-0.2432,-0.2432,-0.2375,-0.237,-0.2365,0,0,0,0,0,-0.256,-0.2536,-0.2544,-0.2544,-0.2537,-0.2535,-0.2534,-0.2529,-0.2538,-0.2521,-0.2508,-0.2509,-0.2461,-0.2465,-0.2462,-0.2437,-0.2434,-0.2433,-0.2432,-0.2377,-0.2371,-0.2366,0,0,0,0,0,0,-0.2514,-0.2532,-0.254,-0.2518,-0.2524,-0.2532,-0.2517,-0.253,-0.2508,-0.2506,-0.2499,-0.2492,-0.2461,-0.2464,-0.2469,-0.2426,-0.245,-0.2449,-0.2409,-0.2404,-0.2399,-0.2368,-0.2471,0,0,0,0,0,-0.2507,-0.2503,-0.2517,-0.25,-0.25,-0.2513,-0.2512,-0.2517,-0.251,-0.2501,-0.2487,-0.2475,-0.2457,-0.2442,-0.2428,-0.2402,-0.2374,-0.2388,-0.2384,-0.238,-0.2354,-0.2281,-0.2266,-0.2429,-0.2429,-0.2429,0,0,-0.2494,-0.2497,-0.2498,-0.2493,-0.2495,-0.2475,-0.2508,-0.2504,-0.2484,-0.25,-0.2455,-0.2458,-0.2449,-0.2413,-0.24,-0.2409,-0.2324,-0.2379,-0.2375,-0.235,-0.2279,-0.2262,-0.2248,-0.2428,-0.2428,-0.2428,0,0,-0.2449,-0.2458,-0.2435,-0.2435,-0.2442,-0.2451,-0.2451,-0.2457,-0.245,-0.2429,-0.243,-0.241,-0.2393,-0.2365,-0.2355,-0.232,-0.2305,-0.2335,-0.2275,-0.2206,-0.219,-0.2177,-0.2136,-0.2119,-0.2327,-0.2327,-0.2327,0,-0.2425,-0.2391,-0.2426,-0.2395,-0.2387,-0.2435,-0.2399,-0.2402,-0.2399,-0.2383,-0.2404,-0.2359,-0.236,-0.2298,-0.229,-0.2304,-0.2274,-0.2294,-0.2195,-0.2181,-0.2168,-0.2129,-0.2111,-0.2324,-0.2325,-0.2325,-0.2325,0,-0.2359,-0.2332,-0.2315,-0.2294,-0.2294,-0.2273,-0.2294,-0.2286,-0.2302,-0.2304,-0.2263,-0.2262,-0.2232,-0.2239,-0.2252,-0.2169,-0.2182,-0.2198,-0.22,-0.2147,-0.2111,-0.2093,-0.232,-0.2321,-0.2322,-0.2323,0,0,-0.229,-0.2271,-0.2263,-0.2237,-0.2238,-0.2231,-0.2205,-0.2184,-0.2161,-0.2165,-0.211,-0.2098,-0.2117,-0.2107,-0.2123,-0.2067,-0.197,-0.2092,-0.209,-0.2036,-0.1825,-0.1778,-0.1755,-0.1963,-0.1959,-0.1956,-0.1841,0,-0.2214,-0.2142,-0.2157,-0.2095,-0.2056,-0.2094,-0.2065,-0.2067,-0.2073,-0.2037,-0.2041,-0.2009,-0.2064,-0.2053,-0.2004,-0.1985,-0.1917,-0.2,-0.1897,-0.1894,-0.1845,-0.173,-0.1654,-0.1538,-0.1824,-0.1821,-0.1819,0,-0.2122,-0.2089,-0.2011,-0.1988,-0.1976,-0.1956,-0.1929,-0.1915,-0.1898,-0.19,-0.1876,-0.1897,-0.1843,-0.1893,-0.1798,-0.185,-0.1821,-0.1801,-0.1797,-0.1752,-0.1812,-0.1636,-0.1495,-0.1504,-0.1791,-0.1794,-0.1795,0,-0.2033,-0.1985,-0.1921,-0.1909,-0.189,-0.1867,-0.1868,-0.1861,-0.184,-0.1811,-0.1791,-0.1753,-0.1734,-0.1681,-0.1691,-0.1727,-0.1575,-0.1623,-0.1544,-0.1543,-0.1454,-0.145,-0.1288,-0.1504,-0.1505,-0.1505,-0.1505,0,-0.1919,-0.1869,-0.1879,-0.1834,-0.1778,-0.1801,-0.1743,-0.1745,-0.1724,-0.1685,-0.1717,-0.1675,-0.1675,-0.1627,-0.162,-0.1525,-0.1519,-0.1486,-0.1481,-0.1437,-0.1432,-0.1421,-0.1466,-0.1501,-0.1502,-0.1503,-0.1503,0,-0.1803,-0.1802,-0.1737,-0.1724,-0.1722,-0.1686,-0.1678,-0.1642,-0.1644,-0.1587,-0.1576,-0.1585,-0.1523,-0.1517,-0.1436,-0.1428,-0.132,-0.1317,-0.1283,-0.1274,-0.1201,-0.1247,-0.1084,-0.1055,-0.1181,-0.1179,-0.1177,0,-0.1724,-0.1678,-0.1662,-0.1638,-0.1625,-0.1593,-0.157,-0.1584,-0.1556,-0.1534,-0.1494,-0.1446,-0.1395,-0.1275,-0.1226,-0.1146,-0.1207,-0.1056,-0.1093,-0.113,-0.1179,-0.1238,-0.1231,-0.0969,-0.0966,-0.0963,-0.0961,0,-0.1587,-0.1597,-0.1556,-0.1514,-0.1487,-0.1461,-0.1439,-0.1406,-0.142,-0.138,-0.1329,-0.1286,-0.1189,-0.1077,-0.0998,-0.0959,-0.1032,-0.0994,-0.1015,-0.0955,-0.1021,-0.1015,-0.1155,-0.0935,-0.0938,-0.094,-0.0941,-0.0942,-0.1504,-0.1456,-0.1426,-0.1374,-0.1355,-0.1319,-0.1266,-0.1262,-0.1204,-0.1132,-0.1163,-0.106,-0.0998,-0.0857,-0.0819,-0.0743,-0.0813,-0.0739,-0.0781,-0.083,-0.081,-0.0902,-0.0696,-0.0697,-0.0698,-0.0699,-0.0699,0,-0.1383,-0.134,-0.1293,-0.123,-0.1176,-0.1209,-0.1164,-0.1102,-0.1015,-0.0971,-0.0909,-0.0802,-0.0703,-0.0671,-0.0595,-0.0559,-0.0574,-0.0569,-0.0633,-0.0628,-0.0667,-0.0667,-0.0464,-0.0464,-0.0464,-0.0464,-0.0464,-0.0464,-0.1312,-0.1223,-0.119,-0.1063,-0.1031,-0.0937,-0.0896,-0.0833,-0.0777,-0.0642,-0.0564,-0.052,-0.0545,-0.0592,-0.0552,-0.0518,-0.055,-0.051,-0.0567,-0.0618,-0.0639,-0.0659,-0.0666,-0.0466,-0.0466,-0.0491,-0.0491,-0.0491]},{"header":{"parameterUnit":"m.s-1","parameterCategory":2,"la1":30.2991,"la2":30.254,"lo1":-89.0895,"lo2":-89.0444,"dy":0.0017,"dx":0.0017,"nx":28,"ny":28,"refTime":"2024-05-01T03:00:00:Z","depth":"0","parameterNumber":3,"parameterNumberName":"V-component_of_CURRENTS"},"data":[0,0,0,0,0,0,0,0,0,0,0,0,0,0,0,0,0,0,0,0,0,0,0,0,0,0,0,0,0,0,0,0,0,0,0,0,0,0,0,0,0,0,0,0,0,0,0,0,0,0,0,0,0,0,0,0,0,0,-0.0051,-0.0049,0,0.0109,0.011,0.0112,0.0178,0.0177,0.0177,0.0177,0.037,0.0375,0.038,0,0,0,0,0,0,0,0,0,0,0,0,0,-0.0216,-0.0214,-0.0051,-0.0049,-0.0047,0.0108,0.011,0.0112,0.0178,0.0177,0.0177,0.0177,0.0368,0.0374,0.0381,0,0,0,0,0,0,0,0,0,0,0,0,0,-0.0112,-0.0214,-0.0051,0.0007,0.0014,0.0108,0.011,0.0113,0.0178,0.0177,0.0177,0.0177,0.0366,0.0374,0.0381,0.0433,0,0,0.0405,0.0409,0,0,0,0,0,0,0,0,-0.0118,-0.0107,-0.0004,0.0003,0.0011,0.0125,0.0123,0.0222,0.0178,0.0113,0.0177,0.0177,0.0293,0.0307,0.0333,0.0442,0.045,0.0406,0.0411,0.0414,0.0416,0,0,0,0,0,0,0,-0.0126,-0.0112,0.001,-0.0002,0.0008,0.0054,0.0067,0.0142,0.02,0.0118,0.0124,0.0146,0.0297,0.0325,0.0338,0.0453,0.0406,0.0413,0.0418,0.0421,0.0591,0.0591,0,0,0,0,0,0,-0.0144,-0.012,0.0004,0.0015,-0.0052,0.0056,0.0072,0.0087,0.0199,0.0216,0.0146,0.0149,0.0312,0.0329,0.0345,0.0394,0.0414,0.0421,0.0426,0.0591,0.0591,0.0591,0,0,0,0,0,0,-0.0148,-0.0135,-0.0002,-0.0046,-0.0026,0.0059,0.0076,0.009,0.0121,0.022,0.0238,0.0163,0.0312,0.0334,0.0387,0.0402,0.0425,0.0432,0.0591,0.0591,0.0591,0.0503,0,0,0,0,0,0,-0.0154,-0.0137,-0.0142,-0.0048,-0.0024,0.0042,0.0077,0.0093,0.0136,0.0141,0.0241,0.0258,0.0314,0.0374,0.0394,0.0413,0.0438,0.0592,0.0591,0.0591,0.0506,0.05,0.0494,0,0,0,0,0,-0.016,-0.0158,-0.0143,-0.0128,-0.003,0.0043,0.0058,0.0117,0.0136,0.0145,0.0197,0.0255,0.0387,0.038,0.0404,0.0426,0.0592,0.0591,0.0591,0.0509,0.0501,0.0494,0,0,0,0,0,0,-0.0236,-0.0148,-0.013,-0.0104,-0.0044,0.0054,0.0075,0.0115,0.0165,0.0168,0.0252,0.0272,0.0329,0.0383,0.0373,0.0472,0.0501,0.0505,0.043,0.0424,0.0418,0.0405,0.0445,0,0,0,0,0,-0.0255,-0.0224,-0.0145,-0.0121,-0.0097,-0.0014,0.0021,0.0061,0.0126,0.0148,0.0213,0.0282,0.0348,0.0386,0.045,0.0504,0.0534,0.0534,0.0528,0.0523,0.0527,0.0549,0.0545,0.059,0.059,0.059,0,0,-0.0268,-0.0222,-0.0201,-0.0134,-0.0081,-0.0047,0.0006,0.0058,0.0088,0.0163,0.021,0.0267,0.0356,0.0409,0.044,0.0456,0.0524,0.0522,0.0517,0.0525,0.0548,0.0543,0.0539,0.0589,0.0589,0.0589,0,0,-0.0281,-0.025,-0.0232,-0.0191,-0.0121,-0.007,-0.006,0.0025,0.0059,0.0109,0.0169,0.022,0.0324,0.0382,0.0428,0.0432,0.049,0.0461,0.0428,0.0447,0.0444,0.0441,0.0461,0.046,0.0459,0.0459,0.0458,0,-0.0312,-0.0277,-0.0217,-0.0197,-0.0162,-0.0087,-0.0065,-0.0017,0.007,0.0102,0.0109,0.0245,0.0313,0.039,0.0385,0.0421,0.0436,0.0445,0.0438,0.0435,0.0434,0.0456,0.0456,0.0454,0.0455,0.0455,0.0456,0,-0.0304,-0.0288,-0.0273,-0.0224,-0.0186,-0.015,-0.0081,-0.0047,-0.0002,0.0054,0.0124,0.0195,0.0278,0.0307,0.035,0.0388,0.0403,0.0423,0.0449,0.0424,0.0449,0.0451,0.0448,0.045,0.0451,0.0452,0,0,-0.0336,-0.0281,-0.0278,-0.0264,-0.0197,-0.0158,-0.012,-0.0049,-0.0017,0.0044,0.0085,0.0182,0.0219,0.0272,0.0331,0.0348,0.0345,0.0372,0.0375,0.0381,0.0382,0.0436,0.0444,0.0353,0.0353,0.0353,0.0399,0,-0.0349,-0.033,-0.0291,-0.0266,-0.0246,-0.0182,-0.0147,-0.008,-0.0024,0.0025,0.0102,0.0162,0.0209,0.0238,0.0263,0.0328,0.0348,0.0331,0.0417,0.042,0.0461,0.0448,0.0464,0.051,0.0402,0.0402,0.0402,0,-0.0355,-0.0337,-0.0326,-0.0278,-0.0263,-0.0242,-0.0169,-0.0128,-0.0045,-0.0005,0.0055,0.0116,0.0176,0.0198,0.0286,0.0268,0.032,0.0359,0.0362,0.0448,0.0478,0.0522,0.0518,0.0583,0.0406,0.0406,0.0406,0,-0.0391,-0.0359,-0.035,-0.0334,-0.0274,-0.0256,-0.0216,-0.0137,-0.0099,-0.0031,-0.001,0.0075,0.0117,0.0176,0.0283,0.0271,0.0367,0.0365,0.0466,0.047,0.0523,0.0532,0.0587,0.0419,0.0419,0.0419,0.0419,0,-0.041,-0.0402,-0.037,-0.0362,-0.0337,-0.0289,-0.0254,-0.0203,-0.0147,-0.01,-0.0033,0.0021,0.0109,0.019,0.0263,0.0384,0.036,0.0463,0.0487,0.0493,0.0499,0.0592,0.0624,0.0421,0.0421,0.042,0.042,0,-0.0439,-0.0425,-0.041,-0.0368,-0.0355,-0.0335,-0.0281,-0.0255,-0.0205,-0.0155,-0.0139,-0.0027,0.0088,0.0192,0.031,0.0375,0.0529,0.0527,0.0533,0.0557,0.069,0.0717,0.0818,0.0887,0.0615,0.0617,0.0618,0,-0.0448,-0.0448,-0.042,-0.0412,-0.0394,-0.0363,-0.034,-0.0285,-0.026,-0.0161,-0.014,-0.0017,0.0116,0.0306,0.0431,0.0566,0.0628,0.0655,0.0643,0.0707,0.0754,0.0762,0.0813,0.067,0.0672,0.0673,0.0675,0,-0.045,-0.0449,-0.0433,-0.0425,-0.0412,-0.0389,-0.0358,-0.0348,-0.0277,-0.022,-0.0092,0.0022,0.0226,0.0415,0.0584,0.0658,0.0711,0.0688,0.075,0.0804,0.0822,0.0896,0.0629,0.0687,0.0686,0.0685,0.0684,0.0684,-0.0443,-0.0438,-0.0428,-0.0417,-0.0411,-0.0401,-0.0376,-0.0336,-0.0273,-0.0159,-0.0052,0.0137,0.038,0.0635,0.0724,0.0866,0.0847,0.0892,0.0919,0.092,0.0994,0.0761,0.0853,0.0852,0.0852,0.0852,0.0852,0,-0.0411,-0.0414,-0.0414,-0.0403,-0.0404,-0.04,-0.0372,-0.0333,-0.0243,-0.0122,0.0032,0.0337,0.0585,0.0779,0.0989,0.1076,0.1092,0.1112,0.1113,0.1155,0.0942,0.0952,0.1075,0.1075,0.1075,0.1075,0.1075,0.1075,-0.0386,-0.0382,-0.0391,-0.0389,-0.0391,-0.0369,-0.0349,-0.0277,-0.0191,0.0027,0.0208,0.0368,0.0647,0.1011,0.1231,0.1254,0.1347,0.1327,0.1396,0.1222,0.1202,0.1184,0.12,0.1373,0.1374,0.1595,0.1597,0.1599]}],[{"header":{"parameterUnit":"m.s-1","parameterCategory":2,"la1":30.2991,"la2":30.254,"lo1":-89.0895,"lo2":-89.0444,"dy":0.0017,"dx":0.0017,"nx":28,"ny":28,"refTime":"2024-05-01T03:00:00:Z","depth":"2","parameterNumber":2,"parameterNumberName":"U-component_of_CURRENTS"},"data":[0,0,0,0,0,0,0,0,0,0,0,0,0,0,0,0,0,0,0,0,0,0,0,0,0,0,0,0,0,0,0,0,0,0,0,0,0,0,0,0,0,0,0,0,0,0,0,0,0,0,0,0,0,0,0,0,0,0,-0.1925,-0.1926,0,-0.1948,-0.1947,-0.1947,-0.1923,-0.1924,-0.1924,-0.1924,-0.1937,-0.1937,-0.1937,0,0,0,0,0,0,0,0,0,0,0,0,0,-0.1897,-0.1897,-0.1925,-0.1926,-0.1928,-0.1948,-0.1947,-0.1946,-0.1923,-0.1924,-0.1924,-0.1924,-0.1937,-0.1937,-0.1937,0,0,0,0,0,0,0,0,0,0,0,0,0,-0.1901,-0.1896,-0.1924,-0.1928,-0.193,-0.1949,-0.1947,-0.1946,-0.1923,-0.1924,-0.1924,-0.1925,-0.1937,-0.1937,-0.1937,-0.1928,0,0,-0.1937,-0.1937,0,0,0,0,0,0,0,0,-0.1901,-0.19,-0.1926,-0.1928,-0.193,-0.1945,-0.1943,-0.1944,-0.1923,-0.1912,-0.1924,-0.1925,-0.1947,-0.1946,-0.1931,-0.1929,-0.1929,-0.1937,-0.1937,-0.1937,-0.1937,0,0,0,0,0,0,0,-0.1901,-0.19,-0.192,-0.1928,-0.1931,-0.1943,-0.1942,-0.1942,-0.1916,-0.1913,-0.1914,-0.1938,-0.1946,-0.1931,-0.1931,-0.193,-0.1937,-0.1937,-0.1937,-0.1937,-0.1901,-0.19,0,0,0,0,0,0,-0.1922,-0.1899,-0.192,-0.1923,-0.1931,-0.1944,-0.1942,-0.1929,-0.1916,-0.1919,-0.1938,-0.1937,-0.193,-0.1931,-0.1932,-0.192,-0.1937,-0.1937,-0.1937,-0.1902,-0.1901,-0.1899,0,0,0,0,0,0,-0.192,-0.1922,-0.1919,-0.1924,-0.1927,-0.1945,-0.1929,-0.1929,-0.195,-0.1938,-0.1937,-0.1965,-0.1931,-0.1931,-0.1932,-0.192,-0.1937,-0.1937,-0.1903,-0.1901,-0.19,-0.1897,0,0,0,0,0,0,-0.1918,-0.192,-0.1917,-0.1924,-0.1928,-0.1943,-0.1931,-0.193,-0.1969,-0.1968,-0.1961,-0.196,-0.1931,-0.1932,-0.1932,-0.1921,-0.1937,-0.1904,-0.1902,-0.1901,-0.1898,-0.1896,-0.1893,0,0,0,0,0,-0.1917,-0.1896,-0.1915,-0.192,-0.1921,-0.1945,-0.1946,-0.1953,-0.197,-0.1973,-0.1959,-0.1962,-0.1919,-0.1932,-0.1932,-0.192,-0.1905,-0.1903,-0.1901,-0.19,-0.1896,-0.1893,0,0,0,0,0,0,-0.186,-0.1895,-0.1914,-0.19,-0.1938,-0.1947,-0.1944,-0.1979,-0.1971,-0.1966,-0.196,-0.1956,-0.1948,-0.1939,-0.1953,-0.1901,-0.1909,-0.1907,-0.1908,-0.1905,-0.1902,-0.1889,-0.1937,0,0,0,0,0,-0.1858,-0.1859,-0.1904,-0.1894,-0.1909,-0.1942,-0.1958,-0.1975,-0.1978,-0.1977,-0.1965,-0.1946,-0.1932,-0.1927,-0.1903,-0.1891,-0.1864,-0.1879,-0.1877,-0.1875,-0.1861,-0.1793,-0.1783,-0.1892,-0.1892,-0.1892,0,0,-0.1843,-0.1856,-0.1862,-0.1887,-0.19,-0.1911,-0.1947,-0.197,-0.1974,-0.1979,-0.1949,-0.1946,-0.1929,-0.1893,-0.1889,-0.189,-0.1833,-0.1872,-0.187,-0.1858,-0.179,-0.1779,-0.1769,-0.189,-0.1891,-0.1891,0,0,-0.1799,-0.1814,-0.1805,-0.1836,-0.1882,-0.1899,-0.1925,-0.1948,-0.1948,-0.195,-0.1938,-0.1928,-0.1911,-0.1874,-0.1865,-0.1842,-0.1826,-0.1843,-0.1816,-0.1751,-0.1741,-0.1732,-0.1704,-0.1692,-0.1837,-0.1837,-0.1837,0,-0.1784,-0.1769,-0.181,-0.1809,-0.1827,-0.1901,-0.19,-0.1913,-0.1931,-0.192,-0.1937,-0.1886,-0.1891,-0.1843,-0.1832,-0.1836,-0.1807,-0.1835,-0.1747,-0.1738,-0.1728,-0.1701,-0.1689,-0.1836,-0.1836,-0.1836,-0.1836,0,-0.1737,-0.1739,-0.1731,-0.1751,-0.1773,-0.1787,-0.1829,-0.1832,-0.1858,-0.1871,-0.1844,-0.1832,-0.1799,-0.1805,-0.182,-0.1758,-0.1763,-0.1757,-0.1757,-0.1717,-0.1692,-0.1678,-0.1836,-0.1836,-0.1836,-0.1836,0,0,-0.1666,-0.1697,-0.1694,-0.1701,-0.1749,-0.1757,-0.1753,-0.1767,-0.1759,-0.177,-0.1734,-0.1729,-0.1739,-0.1727,-0.1735,-0.1694,-0.1635,-0.1705,-0.1702,-0.1681,-0.1509,-0.146,-0.1442,-0.161,-0.1607,-0.1605,-0.1525,0,-0.1622,-0.1605,-0.163,-0.1623,-0.1625,-0.1672,-0.1661,-0.1683,-0.17,-0.1676,-0.1682,-0.1659,-0.1706,-0.1693,-0.166,-0.1645,-0.1596,-0.1658,-0.1546,-0.1543,-0.1507,-0.1422,-0.1328,-0.1243,-0.1512,-0.151,-0.1508,0,-0.1561,-0.1565,-0.1547,-0.1561,-0.1562,-0.1565,-0.1556,-0.1562,-0.1564,-0.157,-0.1554,-0.157,-0.154,-0.1573,-0.1506,-0.1544,-0.1521,-0.1507,-0.1502,-0.1443,-0.1468,-0.132,-0.1209,-0.1486,-0.1488,-0.1489,-0.1491,0,-0.1489,-0.1496,-0.1478,-0.149,-0.152,-0.1502,-0.1511,-0.1521,-0.1512,-0.15,-0.1488,-0.1463,-0.1448,-0.1405,-0.1421,-0.1448,-0.1337,-0.1363,-0.1288,-0.1287,-0.1175,-0.1167,-0.1269,-0.1269,-0.1269,-0.127,-0.127,0,-0.1423,-0.1411,-0.1445,-0.1445,-0.1408,-0.145,-0.1413,-0.1417,-0.1417,-0.1395,-0.143,-0.1396,-0.1402,-0.1366,-0.1365,-0.1289,-0.1285,-0.1255,-0.1239,-0.1175,-0.1168,-0.1355,-0.1366,-0.1267,-0.1267,-0.1268,-0.1268,0,-0.1337,-0.1371,-0.1353,-0.1376,-0.1378,-0.1348,-0.1354,-0.1334,-0.1353,-0.1316,-0.1308,-0.1327,-0.1283,-0.1282,-0.122,-0.121,-0.1147,-0.1116,-0.1065,-0.1043,-0.116,-0.1172,-0.1007,-0.1004,-0.1002,-0.0999,-0.0998,0,-0.1286,-0.1284,-0.1287,-0.1277,-0.1285,-0.1266,-0.1256,-0.1282,-0.127,-0.127,-0.124,-0.1211,-0.1171,-0.1083,-0.1036,-0.0971,-0.1054,-0.0866,-0.0885,-0.1119,-0.1122,-0.1138,-0.1153,-0.0753,-0.075,-0.0747,-0.0744,0,-0.1205,-0.1214,-0.1191,-0.1171,-0.1159,-0.1146,-0.114,-0.1118,-0.1149,-0.1126,-0.1095,-0.1064,-0.0994,-0.0885,-0.082,-0.0784,-0.0872,-0.0803,-0.1006,-0.0841,-0.0874,-0.088,-0.0903,-0.0718,-0.0721,-0.0723,-0.0724,-0.0725,-0.1123,-0.1085,-0.1068,-0.1035,-0.1036,-0.1019,-0.0971,-0.0979,-0.0938,-0.0884,-0.0931,-0.0844,-0.0839,-0.0661,-0.0625,-0.0596,-0.0658,-0.0648,-0.0659,-0.0672,-0.0663,-0.069,-0.0501,-0.0502,-0.0503,-0.0504,-0.0505,0,-0.1,-0.0983,-0.0947,-0.0903,-0.0873,-0.0912,-0.0886,-0.0827,-0.075,-0.0722,-0.0679,-0.0562,-0.049,-0.0492,-0.0387,-0.0379,-0.0403,-0.0386,-0.0419,-0.0443,-0.0465,-0.0449,-0.0227,-0.0227,-0.0227,-0.0226,0,0,-0.0939,-0.0856,-0.0838,-0.0752,-0.0741,-0.0673,-0.064,-0.0571,-0.0525,-0.0409,-0.0351,-0.0394,-0.042,-0.0305,-0.0297,-0.024,-0.0342,-0.0226,-0.0439,-0.0497,-0.0518,-0.0595,-0.0593,0,0,0,0,0]},{"header":{"parameterUnit":"m.s-1","parameterCategory":2,"la1":30.2991,"la2":30.254,"lo1":-89.0895,"lo2":-89.0444,"dy":0.0017,"dx":0.0017,"nx":28,"ny":28,"refTime":"2024-05-01T03:00:00:Z","depth":"2","parameterNumber":3,"parameterNumberName":"V-component_of_CURRENTS"},"data":[0,0,0,0,0,0,0,0,0,0,0,0,0,0,0,0,0,0,0,0,0,0,0,0,0,0,0,0,0,0,0,0,0,0,0,0,0,0,0,0,0,0,0,0,0,0,0,0,0,0,0,0,0,0,0,0,0,0,-0.0333,-0.0332,0,-0.0251,-0.025,-0.0249,-0.0208,-0.0208,-0.0208,-0.0208,-0.0054,-0.005,-0.0046,0,0,0,0,0,0,0,0,0,0,0,0,0,-0.042,-0.0419,-0.0333,-0.0332,-0.0331,-0.0251,-0.025,-0.0249,-0.0208,-0.0208,-0.0208,-0.0208,-0.0056,-0.0051,-0.0046,0,0,0,0,0,0,0,0,0,0,0,0,0,-0.0365,-0.0419,-0.0333,-0.0301,-0.0297,-0.0251,-0.025,-0.0249,-0.0208,-0.0208,-0.0208,-0.0208,-0.0057,-0.0051,-0.0045,-0.001,0,0,-0.0027,-0.0024,0,0,0,0,0,0,0,0,-0.0368,-0.0362,-0.0306,-0.0303,-0.0298,-0.0239,-0.0224,-0.0165,-0.0208,-0.0242,-0.0208,-0.0208,-0.0109,-0.0099,-0.0085,-0.0003,0.0004,-0.0026,-0.0023,-0.002,-0.0018,0,0,0,0,0,0,0,-0.0372,-0.0365,-0.0301,-0.0305,-0.03,-0.0278,-0.0271,-0.0213,-0.0176,-0.0239,-0.0236,-0.0226,-0.0107,-0.0091,-0.0081,0.0006,-0.0027,-0.0021,-0.0017,-0.0015,0.013,0.013,0,0,0,0,0,0,-0.0383,-0.0369,-0.0304,-0.0298,-0.0333,-0.0277,-0.0268,-0.0259,-0.0178,-0.0166,-0.0226,-0.0224,-0.0102,-0.0088,-0.0076,-0.0019,-0.002,-0.0014,-0.0011,0.0129,0.013,0.013,0,0,0,0,0,0,-0.0385,-0.0378,-0.0307,-0.0332,-0.0321,-0.0276,-0.0265,-0.0257,-0.0228,-0.0169,-0.0156,-0.0204,-0.0101,-0.0084,-0.0022,-0.0013,-0.0012,-0.0006,0.0129,0.013,0.013,0.0089,0,0,0,0,0,0,-0.0388,-0.038,-0.038,-0.0332,-0.032,-0.0274,-0.0265,-0.0255,-0.0223,-0.0219,-0.0146,-0.0132,-0.01,-0.0031,-0.0016,-0.0004,-0.0002,0.0129,0.0129,0.013,0.0091,0.0088,0.0087,0,0,0,0,0,-0.0392,-0.0391,-0.0381,-0.0373,-0.0321,-0.0273,-0.0264,-0.0233,-0.0222,-0.0207,-0.0163,-0.0134,-0.0018,-0.0026,-0.0008,0.0006,0.0129,0.0129,0.013,0.0091,0.0089,0.0087,0,0,0,0,0,0,-0.0433,-0.0385,-0.0373,-0.0359,-0.0317,-0.0266,-0.0255,-0.0226,-0.018,-0.0177,-0.0121,-0.0105,-0.0049,-0.0015,-0.0025,0.0046,0.0057,0.0061,0.0022,0.002,0.0018,0.0013,0.0003,0,0,0,0,0,-0.0442,-0.0433,-0.0376,-0.037,-0.0346,-0.0298,-0.0276,-0.0249,-0.0201,-0.0181,-0.0135,-0.0086,-0.0035,-0.0003,0.0044,0.0093,0.0116,0.0109,0.0107,0.0105,0.0113,0.0144,0.0145,0.0132,0.0132,0.0132,0,0,-0.0457,-0.0434,-0.0427,-0.0379,-0.0347,-0.0314,-0.0284,-0.0248,-0.0221,-0.017,-0.0128,-0.0085,-0.0023,0.0022,0.005,0.0054,0.012,0.0106,0.0104,0.0113,0.0145,0.0146,0.0147,0.0132,0.0132,0.0132,0,0,-0.0477,-0.0458,-0.0447,-0.0411,-0.0361,-0.0329,-0.0314,-0.0254,-0.0227,-0.0178,-0.014,-0.0091,-0.0017,0.0025,0.0058,0.0078,0.0109,0.0089,0.0079,0.0109,0.011,0.0112,0.0134,0.0138,0.0087,0.0087,0.0087,0,-0.0497,-0.0474,-0.0437,-0.0412,-0.0387,-0.0334,-0.0306,-0.0269,-0.0203,-0.0175,-0.0171,-0.0067,-0.0016,0.0051,0.0051,0.0076,0.0091,0.0082,0.0106,0.0108,0.011,0.0132,0.0137,0.0085,0.0085,0.0085,0.0085,0,-0.0491,-0.0476,-0.0467,-0.0423,-0.0392,-0.0361,-0.0302,-0.0274,-0.0241,-0.0198,-0.0133,-0.0075,-0.0013,0.0007,0.004,0.0085,0.0089,0.0098,0.0108,0.0109,0.0132,0.0138,0.0082,0.0083,0.0083,0.0084,0,0,-0.0518,-0.0471,-0.0467,-0.0451,-0.0392,-0.0363,-0.0328,-0.0266,-0.0237,-0.0185,-0.0145,-0.0063,-0.0033,0.0007,0.0049,0.0077,0.0104,0.009,0.0092,0.0105,0.0161,0.0178,0.0186,0.011,0.0111,0.0112,0.0167,0,-0.052,-0.0491,-0.0462,-0.0435,-0.0409,-0.0363,-0.0333,-0.0278,-0.0232,-0.0187,-0.0119,-0.0065,-0.0031,-0.0006,0.0029,0.0089,0.0119,0.0088,0.0165,0.0167,0.0178,0.0194,0.0165,0.0213,0.0173,0.0174,0.0174,0,-0.0511,-0.0495,-0.0471,-0.0436,-0.0419,-0.04,-0.0346,-0.0309,-0.0234,-0.0199,-0.014,-0.0088,-0.0019,-0.0007,0.0092,0.0066,0.0114,0.0151,0.0154,0.0192,0.0196,0.021,0.0226,0.0184,0.0183,0.0183,0.0182,0,-0.0538,-0.0499,-0.0488,-0.0472,-0.0422,-0.0409,-0.0381,-0.0313,-0.0278,-0.0209,-0.0185,-0.0097,-0.0055,0.0011,0.0102,0.0093,0.0197,0.0194,0.0256,0.0257,0.0262,0.0262,0.026,0.026,0.026,0.026,0.026,0,-0.0544,-0.0532,-0.0502,-0.0493,-0.0475,-0.0434,-0.0404,-0.0363,-0.0307,-0.0263,-0.0194,-0.0148,-0.0051,0.0026,0.0096,0.0199,0.0197,0.0264,0.0278,0.0246,0.0245,0.0244,0.0242,0.0262,0.0262,0.0261,0.0261,0,-0.0565,-0.0548,-0.0533,-0.0498,-0.0489,-0.0474,-0.0428,-0.0401,-0.0351,-0.0303,-0.0284,-0.0181,-0.0075,0.0025,0.0144,0.0196,0.0287,0.0324,0.0279,0.0287,0.0323,0.0318,0.039,0.0391,0.0392,0.0393,0.0394,0,-0.0568,-0.0567,-0.0545,-0.0541,-0.0526,-0.0502,-0.0482,-0.0429,-0.0401,-0.0314,-0.0293,-0.0182,-0.0084,0.0093,0.0207,0.0332,0.0335,0.0367,0.0353,0.0334,0.034,0.0333,0.0326,0.0338,0.0338,0.0338,0.0338,0,-0.0575,-0.0574,-0.0561,-0.0556,-0.0546,-0.0526,-0.0498,-0.0488,-0.0422,-0.0376,-0.0285,-0.0204,-0.0024,0.012,0.0275,0.0338,0.0342,0.0375,0.0377,0.031,0.0289,0.0294,0.0288,0.034,0.034,0.034,0.034,0.034,-0.0575,-0.0574,-0.0566,-0.0558,-0.0551,-0.0542,-0.0525,-0.0492,-0.0447,-0.0363,-0.0291,-0.0149,-0.0033,0.0209,0.0308,0.0397,0.0395,0.04,0.0397,0.0395,0.0379,0.0362,0.0423,0.0423,0.0423,0.0424,0.0424,0,-0.056,-0.0562,-0.0564,-0.0555,-0.055,-0.0544,-0.0522,-0.0492,-0.0439,-0.0349,-0.025,-0.0094,0.0061,0.0204,0.0349,0.042,0.0401,0.0425,0.0382,0.0379,0.0377,0.0359,0.0399,0.0399,0.04,0.04,0,0,-0.0552,-0.055,-0.0555,-0.0548,-0.0544,-0.0524,-0.0511,-0.0462,-0.0392,-0.0294,-0.0184,-0.0073,0.0087,0.0179,0.0264,0.0347,0.0341,0.0347,0.0354,0.0288,0.0286,0.0347,0.0315,0,0,0,0,0]}],[{"header":{"parameterUnit":"m.s-1","parameterCategory":2,"la1":30.2991,"la2":30.254,"lo1":-89.0895,"lo2":-89.0444,"dy":0.0017,"dx":0.0017,"nx":28,"ny":28,"refTime":"2024-05-01T03:00:00:Z","depth":"4","parameterNumber":2,"parameterNumberName":"U-component_of_CURRENTS"},"data":[0,0,0,0,0,0,0,0,0,0,0,0,0,0,0,0,0,0,0,0,0,0,0,0,0,0,0,0,0,0,0,0,0,0,0,0,0,0,0,0,0,0,0,0,0,0,0,0,0,0,0,0,0,0,0,0,0,0,-0.0845,-0.0845,0,-0.0867,-0.0868,-0.0869,-0.0905,-0.0905,-0.0905,-0.0905,-0.095,-0.0951,-0.0953,0,0,0,0,0,0,0,0,0,0,0,0,0,-0.081,-0.0811,-0.0845,-0.0845,-0.0845,-0.0867,-0.0868,-0.0869,-0.0905,-0.0905,-0.0905,-0.0905,-0.095,-0.0951,-0.0953,0,0,0,0,0,0,0,0,0,0,0,0,0,-0.0834,-0.0812,-0.0845,-0.086,-0.0861,-0.0867,-0.0868,-0.0869,-0.0905,-0.0905,-0.0905,-0.0905,-0.0949,-0.0951,-0.0953,-0.0963,0,0,-0.0958,-0.0959,0,0,0,0,0,0,0,0,-0.0833,-0.0837,-0.0858,-0.0859,-0.086,-0.0877,-0.0872,-0.0899,-0.0905,-0.0895,-0.0905,-0.0905,-0.0924,-0.0927,-0.0941,-0.0965,-0.0967,-0.0958,-0.0959,-0.096,-0.0961,0,0,0,0,0,0,0,-0.0831,-0.0836,-0.0861,-0.0858,-0.0859,-0.0857,-0.0861,-0.0878,-0.0915,-0.0896,-0.0897,-0.0889,-0.0925,-0.0939,-0.0942,-0.0967,-0.0958,-0.096,-0.0961,-0.0962,-0.0994,-0.0994,0,0,0,0,0,0,-0.0817,-0.0834,-0.086,-0.0861,-0.0839,-0.0857,-0.0862,-0.0877,-0.0914,-0.0917,-0.0889,-0.089,-0.0936,-0.094,-0.0944,-0.0978,-0.096,-0.0962,-0.0963,-0.0994,-0.0994,-0.0994,0,0,0,0,0,0,-0.0816,-0.082,-0.0859,-0.0841,-0.0845,-0.0857,-0.0874,-0.0878,-0.0893,-0.0907,-0.0912,-0.0899,-0.0936,-0.0941,-0.0967,-0.0979,-0.0963,-0.0964,-0.0994,-0.0994,-0.0994,-0.1033,0,0,0,0,0,0,-0.0816,-0.082,-0.0832,-0.0841,-0.0845,-0.0857,-0.0873,-0.0878,-0.0884,-0.0887,-0.0917,-0.0922,-0.0937,-0.0965,-0.0969,-0.0981,-0.0966,-0.0995,-0.0994,-0.0994,-0.1032,-0.1034,-0.1036,0,0,0,0,0,-0.0815,-0.0814,-0.0833,-0.0836,-0.0861,-0.0856,-0.0859,-0.0871,-0.0884,-0.0887,-0.0918,-0.0921,-0.0964,-0.0967,-0.0972,-0.0985,-0.0995,-0.0994,-0.0994,-0.1031,-0.1034,-0.1036,0,0,0,0,0,0,-0.0804,-0.0818,-0.0839,-0.0845,-0.0851,-0.0859,-0.0865,-0.0871,-0.0898,-0.0914,-0.093,-0.0936,-0.0962,-0.0961,-0.0962,-0.0988,-0.0975,-0.0976,-0.1002,-0.1004,-0.1006,-0.0976,-0.0967,0,0,0,0,0,-0.0808,-0.0804,-0.0828,-0.0824,-0.0844,-0.086,-0.0863,-0.0873,-0.089,-0.0903,-0.0932,-0.0952,-0.0963,-0.0974,-0.099,-0.1009,-0.0996,-0.1014,-0.1016,-0.1018,-0.0994,-0.1005,-0.1006,-0.0992,-0.0992,-0.0992,0,0,-0.0797,-0.08,-0.08,-0.0819,-0.0841,-0.086,-0.0865,-0.0874,-0.0886,-0.0904,-0.095,-0.0967,-0.0968,-0.0996,-0.1005,-0.0999,-0.1015,-0.1017,-0.1019,-0.0994,-0.1004,-0.1006,-0.1007,-0.0992,-0.0992,-0.0992,0,0,-0.0765,-0.0795,-0.0797,-0.0814,-0.0836,-0.085,-0.0852,-0.0888,-0.0911,-0.0942,-0.0959,-0.0979,-0.1009,-0.1016,-0.1017,-0.1032,-0.1026,-0.1036,-0.1027,-0.1039,-0.104,-0.1041,-0.103,-0.1029,-0.1037,-0.1037,-0.1037,0,-0.0755,-0.0774,-0.079,-0.0809,-0.0823,-0.0848,-0.0868,-0.0889,-0.0923,-0.0933,-0.0958,-0.0993,-0.1013,-0.1013,-0.1024,-0.1038,-0.1033,-0.1026,-0.1043,-0.1044,-0.1044,-0.1032,-0.1031,-0.1039,-0.1039,-0.1038,-0.1038,0,-0.074,-0.0768,-0.0773,-0.081,-0.0822,-0.084,-0.0878,-0.0902,-0.0934,-0.0946,-0.0973,-0.1008,-0.1019,-0.1033,-0.1037,-0.1043,-0.1035,-0.105,-0.1042,-0.1048,-0.1034,-0.1033,-0.1041,-0.1041,-0.104,-0.104,0,0,-0.0686,-0.0753,-0.0758,-0.0784,-0.0835,-0.0834,-0.0869,-0.0891,-0.0907,-0.0945,-0.0964,-0.0987,-0.1004,-0.1004,-0.1023,-0.1029,-0.1047,-0.104,-0.104,-0.1035,-0.1057,-0.096,-0.0948,-0.1075,-0.1075,-0.1075,-0.1048,0,-0.068,-0.0711,-0.0745,-0.0772,-0.0806,-0.0845,-0.0867,-0.0882,-0.0919,-0.0951,-0.0964,-0.0994,-0.0994,-0.1021,-0.1025,-0.1052,-0.1043,-0.1051,-0.1043,-0.1042,-0.0961,-0.0943,-0.1074,-0.1047,-0.1047,-0.1046,-0.1046,0,-0.0671,-0.0689,-0.0728,-0.0772,-0.0793,-0.0805,-0.0842,-0.0864,-0.0901,-0.0936,-0.0953,-0.0982,-0.0995,-0.1013,-0.1018,-0.1027,-0.1029,-0.1038,-0.1038,-0.0924,-0.094,-0.1036,-0.1043,-0.1043,-0.1043,-0.1044,-0.1044,0,-0.062,-0.0676,-0.07,-0.0721,-0.0776,-0.079,-0.0811,-0.0851,-0.0879,-0.0928,-0.0961,-0.0975,-0.1007,-0.1008,-0.1018,-0.1032,-0.1018,-0.1051,-0.0947,-0.0941,-0.1023,-0.1022,-0.103,-0.103,-0.103,-0.103,-0.1031,0,-0.0601,-0.0619,-0.068,-0.069,-0.0702,-0.0756,-0.078,-0.0807,-0.0871,-0.0888,-0.0947,-0.096,-0.1011,-0.1014,-0.1013,-0.0956,-0.1012,-0.0918,-0.092,-0.104,-0.1041,-0.1022,-0.1021,-0.1029,-0.103,-0.103,-0.103,0,-0.0548,-0.06,-0.062,-0.0671,-0.0683,-0.0686,-0.0752,-0.0776,-0.0844,-0.0879,-0.0898,-0.0957,-0.0946,-0.0965,-0.0974,-0.0941,-0.0911,-0.0873,-0.0973,-0.0986,-0.0828,-0.083,-0.0761,-0.0758,-0.0754,-0.0752,-0.0749,0,-0.0522,-0.053,-0.0578,-0.0583,-0.0608,-0.0636,-0.066,-0.0742,-0.0776,-0.0848,-0.0854,-0.0878,-0.0896,-0.0815,-0.0848,-0.0815,-0.0804,-0.079,-0.0816,-0.0787,-0.0798,-0.0804,-0.081,-0.0744,-0.0743,-0.0742,-0.0742,0,-0.0449,-0.0477,-0.0494,-0.0511,-0.0534,-0.0555,-0.0599,-0.0624,-0.0712,-0.0788,-0.0774,-0.0767,-0.0746,-0.0737,-0.0712,-0.0693,-0.0808,-0.0756,-0.0764,-0.0788,-0.0766,-0.0781,-0.079,-0.073,-0.0732,-0.0733,-0.0734,0,-0.0385,-0.0379,-0.0409,-0.0421,-0.0451,-0.046,-0.05,-0.0535,-0.0577,-0.068,-0.0657,-0.0677,-0.0718,-0.0669,-0.0643,-0.0617,-0.0616,-0.061,-0.0625,-0.0638,-0.061,-0.0565,-0.0445,0,0,0,0,0,-0.0303,-0.0294,-0.0308,-0.0322,-0.0362,-0.0373,-0.0451,-0.0507,-0.0606,-0.0569,-0.0616,-0.0586,-0.0552,-0.0562,-0.0508,-0.0589,-0.0621,-0.0525,-0.0623,-0.0668,-0.0681,-0.066,0,0,0,0,0,0,-0.024,-0.0249,-0.0277,-0.0247,-0.024,-0.0269,-0.0317,-0.0386,-0.0381,-0.0475,-0.0455,-0.052,-0.0493,-0.0546,-0.0476,-0.0482,-0.0526,-0.0545,-0.0543,-0.0661,-0.0673,-0.0683,-0.0666,0,0,0,0,0]},{"header":{"parameterUnit":"m.s-1","parameterCategory":2,"la1":30.2991,"la2":30.254,"lo1":-89.0895,"lo2":-89.0444,"dy":0.0017,"dx":0.0017,"nx":28,"ny":28,"refTime":"2024-05-01T03:00:00:Z","depth":"4","parameterNumber":3,"parameterNumberName":"V-component_of_CURRENTS"},"data":[0,0,0,0,0,0,0,0,0,0,0,0,0,0,0,0,0,0,0,0,0,0,0,0,0,0,0,0,0,0,0,0,0,0,0,0,0,0,0,0,0,0,0,0,0,0,0,0,0,0,0,0,0,0,0,0,0,0,-0.0268,-0.0268,0,-0.0253,-0.0253,-0.0253,-0.0232,-0.0232,-0.0232,-0.0232,-0.0208,-0.0207,-0.0206,0,0,0,0,0,0,0,0,0,0,0,0,0,-0.0269,-0.0268,-0.0268,-0.0268,-0.0269,-0.0254,-0.0253,-0.0252,-0.0232,-0.0232,-0.0232,-0.0232,-0.0208,-0.0207,-0.0206,0,0,0,0,0,0,0,0,0,0,0,0,0,-0.0259,-0.0268,-0.0268,-0.0259,-0.0259,-0.0254,-0.0253,-0.0252,-0.0232,-0.0232,-0.0232,-0.0232,-0.0208,-0.0207,-0.0206,-0.02,0,0,-0.0203,-0.0203,0,0,0,0,0,0,0,0,-0.026,-0.0259,-0.0261,-0.026,-0.0259,-0.0248,-0.0244,-0.0236,-0.0232,-0.0238,-0.0232,-0.0232,-0.0223,-0.022,-0.0212,-0.0199,-0.0198,-0.0203,-0.0202,-0.0202,-0.0202,0,0,0,0,0,0,0,-0.026,-0.0259,-0.0259,-0.0261,-0.026,-0.0253,-0.0251,-0.0242,-0.0227,-0.0238,-0.0237,-0.0241,-0.0222,-0.0213,-0.0212,-0.0198,-0.0203,-0.0202,-0.0202,-0.0201,-0.0171,-0.0171,0,0,0,0,0,0,-0.027,-0.026,-0.0259,-0.0259,-0.0264,-0.0253,-0.0251,-0.0248,-0.0228,-0.0226,-0.0241,-0.0241,-0.0215,-0.0213,-0.0211,-0.02,-0.0202,-0.0201,-0.0201,-0.0172,-0.0171,-0.0171,0,0,0,0,0,0,-0.027,-0.027,-0.026,-0.0262,-0.0261,-0.0254,-0.0251,-0.0248,-0.0245,-0.0231,-0.0228,-0.0241,-0.0215,-0.0212,-0.02,-0.0199,-0.0201,-0.02,-0.0172,-0.0171,-0.0171,-0.0181,0,0,0,0,0,0,-0.027,-0.027,-0.0272,-0.0263,-0.0261,-0.0265,-0.0251,-0.0248,-0.0249,-0.0248,-0.0231,-0.0228,-0.0215,-0.0201,-0.0199,-0.0198,-0.0199,-0.0172,-0.0172,-0.0171,-0.018,-0.0181,-0.0181,0,0,0,0,0,-0.027,-0.0271,-0.0272,-0.0272,-0.0264,-0.0266,-0.0264,-0.0256,-0.0249,-0.0251,-0.0232,-0.0229,-0.0197,-0.02,-0.0197,-0.0196,-0.0172,-0.0172,-0.0171,-0.018,-0.0181,-0.0181,0,0,0,0,0,0,-0.0272,-0.027,-0.027,-0.0271,-0.0274,-0.0264,-0.0266,-0.0261,-0.0246,-0.0243,-0.0225,-0.0221,-0.021,-0.0202,-0.0206,-0.0186,-0.0185,-0.0184,-0.0193,-0.0193,-0.0193,-0.0193,-0.0198,0,0,0,0,0,-0.0276,-0.0277,-0.0276,-0.028,-0.0281,-0.0274,-0.0274,-0.0271,-0.0259,-0.0253,-0.0242,-0.0224,-0.0205,-0.0198,-0.0186,-0.0175,-0.0151,-0.0173,-0.0173,-0.0173,-0.0171,-0.0115,-0.011,-0.0169,-0.0169,-0.0169,0,0,-0.0285,-0.0279,-0.0285,-0.0282,-0.028,-0.0281,-0.0273,-0.0276,-0.0273,-0.0253,-0.0243,-0.0227,-0.0203,-0.0188,-0.0183,-0.0182,-0.0147,-0.0172,-0.0173,-0.0171,-0.0114,-0.0108,-0.0103,-0.0169,-0.0169,-0.0169,0,0,-0.0295,-0.0292,-0.0296,-0.0294,-0.0295,-0.0292,-0.0296,-0.029,-0.0283,-0.0274,-0.0253,-0.0233,-0.0217,-0.0192,-0.0177,-0.017,-0.015,-0.0173,-0.0173,-0.0118,-0.0112,-0.0107,-0.0085,-0.0077,-0.0172,-0.0172,-0.0172,0,-0.0305,-0.0303,-0.03,-0.0295,-0.0296,-0.0298,-0.03,-0.0293,-0.0284,-0.0274,-0.0275,-0.0229,-0.0214,-0.0177,-0.0175,-0.017,-0.0146,-0.0175,-0.0117,-0.0111,-0.0106,-0.0084,-0.0075,-0.0172,-0.0172,-0.0172,-0.0172,0,-0.0314,-0.0311,-0.0312,-0.0307,-0.0308,-0.0312,-0.0306,-0.0307,-0.0302,-0.0286,-0.026,-0.0232,-0.0201,-0.0196,-0.0183,-0.014,-0.014,-0.0124,-0.0116,-0.01,-0.0078,-0.0069,-0.0173,-0.0173,-0.0172,-0.0172,0,0,-0.0334,-0.0322,-0.0322,-0.0319,-0.0312,-0.0315,-0.0313,-0.0305,-0.0294,-0.0281,-0.0253,-0.0223,-0.0203,-0.0185,-0.0165,-0.0125,-0.0072,-0.0112,-0.0109,-0.0089,0.003,-0.0018,-0.0013,-0.0042,-0.004,-0.0038,0.0023,0,-0.0343,-0.0339,-0.0329,-0.0332,-0.033,-0.0325,-0.032,-0.031,-0.0296,-0.027,-0.0233,-0.0201,-0.0199,-0.018,-0.0138,-0.0086,-0.0046,-0.0091,0.0011,0.0013,-0.0029,-0.0003,-0.0032,0.003,0.0032,0.0033,0.0035,0,-0.0347,-0.0344,-0.0347,-0.0336,-0.0335,-0.034,-0.033,-0.0323,-0.0285,-0.0267,-0.0228,-0.0196,-0.0142,-0.0136,-0.004,-0.0069,-0.0021,0.0016,0.002,-0.0013,-0.0017,0.0015,0.0051,0.005,0.0048,0.0047,0.0046,0,-0.0355,-0.0351,-0.0356,-0.0353,-0.0346,-0.035,-0.0349,-0.0324,-0.031,-0.026,-0.0238,-0.0171,-0.0134,-0.0061,-0.0004,-0.0008,0.01,0.011,0.011,0.0106,0.0135,0.0129,0.0192,0.0192,0.0192,0.0191,0.0191,0,-0.0352,-0.0354,-0.0365,-0.0364,-0.0373,-0.0361,-0.0357,-0.0345,-0.0311,-0.0287,-0.0235,-0.0204,-0.011,-0.0046,0.0011,0.0075,0.0117,0.0114,0.0127,0.0125,0.0118,0.014,0.0133,0.0194,0.0193,0.0193,0.0192,0,-0.0346,-0.0353,-0.0361,-0.037,-0.0375,-0.0382,-0.0375,-0.0363,-0.0334,-0.0301,-0.0284,-0.0211,-0.0138,-0.0061,0.0056,0.0086,0.0158,0.0173,0.0143,0.0153,0.0124,0.0116,0.0189,0.0188,0.0187,0.0186,0.0185,0,-0.0339,-0.0345,-0.0371,-0.0382,-0.0389,-0.0397,-0.0397,-0.0379,-0.0365,-0.0313,-0.0295,-0.0222,-0.0173,-0.0049,0.003,0.0131,0.0142,0.0177,0.0169,0.0121,0.0128,0.0121,0.0114,0.0184,0.0184,0.0184,0.0183,0,-0.0327,-0.0346,-0.0355,-0.0382,-0.0398,-0.0404,-0.0407,-0.0401,-0.0374,-0.0351,-0.0298,-0.0234,-0.0157,-0.0065,0.0008,0.0082,0.0155,0.0169,0.0172,0.0164,0.0117,0.0123,0.0117,0.0181,0.0181,0.0181,0.0181,0,-0.0323,-0.0332,-0.0353,-0.0371,-0.0395,-0.0404,-0.0408,-0.0393,-0.0379,-0.0333,-0.0321,-0.0236,-0.0183,-0.0091,-0.0022,0.0039,0.0057,0.0082,0.0089,0.0093,0.0038,-0.0037,-0.0002,0,0,0,0,0,-0.0312,-0.0314,-0.0335,-0.0357,-0.0383,-0.0391,-0.0405,-0.0404,-0.0392,-0.0361,-0.0341,-0.0275,-0.0174,-0.0123,-0.0069,-0.0039,0.0066,0.0025,0.0098,0.0165,0.0168,0.0115,0,0,0,0,0,0,-0.0301,-0.0317,-0.0325,-0.0341,-0.035,-0.037,-0.0381,-0.0376,-0.0359,-0.0343,-0.0289,-0.0262,-0.0163,-0.0198,-0.0064,-0.0046,0.0006,0.0074,0.0075,0.0163,0.0166,0.0168,0.0115,0,0,0,0,0]}]]